Other Public Products
Issued by NWS Grand Forks, ND

Home | Current Version | Previous Version | Graphics & Text | Print | Product List | Glossary On
Versions: 1 2 3 4 5 6 7 8 9 10 11 12 13 14 15 16 17 18 19 20 21 22 23 24 25 26 27 28 29 30 31 32 33 34 35 36 37 38 39 40 41 42 43 44 45 46 47 48 49 50
000
FPUS83 KFGF 300710
OPUFGF
PRAIRIE TO PINES WEATHER ROUNDUP
NATIONAL WEATHER SERVICE EASTERN NORTH DAKOTA/GRAND FORKS ND
200 AM CDT THU MAR 30 2017

 **SATELLITE DATA USED TO AUGMENT SKY COVER AT AUTOMATED STATIONS**
 *****  WEATHER ACROSS EASTERN NORTH DAKOTA  *****

CITY           SKY/WX    TMP DP  RH WIND       PRES   REMARKS
GRAND FORKS    FAIR      42  37  82 S17       29.98S
GRAND FORKS AF CLOUDY    43  36  77 S18G26    29.97R
GRAND CITY NWS NOT AVBL
BUXTON         NOT AVBL
DEVILS LAKE    CLOUDY    43  35  73 S22G29    29.92R
FARGO          FAIR      40  37  89 S13       30.02F
WAHPETON ARPT  FAIR      32  32 100 S8        30.04F WCI  25
$$

 *****  WEATHER ACROSS CENTRAL AND WESTERN NORTH DAKOTA  *****

CITY           SKY/WX    TMP DP  RH WIND       PRES   REMARKS
JAMESTOWN      CLOUDY    39  35  86 S16       29.96F
BISMARCK       CLOUDY    47  35  63 SE16      29.92S
MINOT          FAIR      50  39  66 SW9       29.80F
MINOT AFB      NOT AVBL
GARRISON         N/A     44  36  73 S14       29.83F
WILLISTON      FAIR      44  35  70 CALM      29.79F
DICKINSON      FAIR      38  35  89 S10       29.81F
HETTINGER      MOCLDY    41  36  82 S12       29.87F
$$

 *****  OTHER OBSERVATIONS NORTHEAST NORTH DAKOTA  *****

CITY           SKY/WX    TMP DP  RH WIND       PRES   REMARKS
WALHALLA       NOT AVBL
LANGDON        CLOUDY    41  39  93 S18       29.92R
CAVALIER       FAIR      45  36  70 S17G25    29.93R
GRAFTON        FAIR      43  37  81 S17G24    29.97S
CANDO          NOT AVBL
FORT TOTTEN      N/A     43  36  77 S15       29.95S
ROLLA          CLOUDY    41  39  93 S13       29.86S
RUGBY          NOT AVBL
 ***** THE ABOVE OBSERVATIONS ARE NON NWS ARE NOT QUALITY
        CONTROLLED AND MAY MIS-REPORT RAIN FOR SNOW...
$$

 *****  OTHER OBSERVATIONS SOUTHEAST NORTH DAKOTA *****

CITY           SKY/WX    TMP DP  RH WIND       PRES   REMARKS
COOPERSTOWN    FAIR      39  36  87 S20       29.98R
VALLEY CITY    FAIR      39  39 100 S16G22    30.01S
OAKES          NOT AVBL
GWINNER        SUNNY     34  34 100 MISG      30.03F
SHEYENNE NWR     N/A     35  33  94 S7        29.95S
BUFFALO        NOT AVBL
WYNDMERE       NOT AVBL
 ***** THE ABOVE OBSERVATIONS ARE NON NWS ARE NOT QUALITY
       CONTROLLED AND MAY MIS-REPORT RAIN FOR SNOW...
$$

  *****  WEATHER ACROSS NORTHERN MINNESOTA  *****

CITY           SKY/WX    TMP DP  RH WIND       PRES   REMARKS
FLAG ISLAND    FAIR      34  30  86 S10       30.00R
WARROAD        FAIR      43  36  75 S7        30.00S
ROSEAU         FAIR      43  36  75 S12       29.99S
HALLOCK        CLOUDY    43  39  87 S15       29.96S
THF RVR FALLS  FAIR      39  35  86 SW12      30.03R
HALSTAD          N/A     37  36  93 S12         N/A
FOSSTON        FAIR      36  32  87 S12       30.03S
BAUDETTE       FAIR      38  31  76 S8        30.02S
WASKISH        FAIR      36  30  80 S6        30.04S
CROOKSTON      FAIR      39  36  87 S13       30.02F
$$
  *****  WEATHER ACROSS CENTRAL AND WEST MINNESOTA  *****

CITY           SKY/WX    TMP DP  RH WIND       PRES   REMARKS
BEMIDJI        FAIR      32  30  92 SE6       30.05S
PARK RAPIDS    FAIR      35  28  75 E5        30.05S
WADENA         FAIR      30  28  93 CALM      30.05F
DETROIT LAKES  FAIR      36  36 100 S3        30.05S
MOORHEAD       FAIR      37  36  93 S9        30.04F
FERGUS FALLS   FAIR      37  37 100 CALM      30.09S
ELBOW LAKE     CLOUDY    37  37  99 CALM      30.05S
MORRIS MN      CLOUDY    39  37  93 CALM      30.03F
STAPLES        MOCLDY    34  28  80 E3        30.06S
WHEATON        CLOUDY    37  36  93 CALM      30.07R
$$
  *****  WEATHER ELSEWHERE ACROSS MINNESOTA  *****

CITY           SKY/WX    TMP DP  RH WIND       PRES   REMARKS
DULUTH         CLOUDY    31  29  92 E9        30.10F WCI  23
INTRNTL FALLS  FAIR      33  26  75 SE7       30.06F
ELY            FAIR      27  23  86 CALM      30.11F
CLOQUET        CLOUDY    32  28  86 E7        30.10F
BRAINERD       FAIR      31  28  89 CALM      30.07F
HIBBING        FAIR      25  24  96 CALM      30.10F
ALEXANDRIA     CLOUDY    39  37  92 SE5       30.05F
SAINT CLOUD    CLOUDY    38  34  85 NE6       30.05F
MINNEAPOLIS    LGT RAIN  41  36  82 E15       30.04F
$$

  *****  WEATHER ACROSS SOUTH DAKOTA  *****

CITY           SKY/WX    TMP DP  RH WIND       PRES   REMARKS
SIOUX FALLS    CLOUDY    39  38  96 NE13      29.93F
BROOKINGS      CLOUDY    38  35  89 E13       29.96F
WATERTOWN      CLOUDY    38  36  92 E7        29.99F
HURON          CLOUDY    41  38  89 NE7       29.99S
SISSETON         N/A     41  38  89 S8        30.03S
ABERDEEN       CLOUDY    37  33  85 SE5       30.01F
MITCHELL       CLOUDY    41  36  82 NE6       29.97F
PIERRE         FAIR      35  33  92 S10       29.95F
MOBRIDGE       FAIR      37  31  78 S6        29.94S
RAPID CITY     FAIR      35  34  96 SE7       29.89F
$$

  *****  SOME WEATHER IN NEARBY STATES *****

CITY           SKY/WX    TMP DP  RH WIND       PRES   REMARKS
GLASGOW MT     FAIR      45  33  63 E12       29.74F
GREAT FALLS MT FAIR      48  34  58 SW18      29.73F
CHEYENNE WY    FAIR      35  33  92 SW14      29.92F
SCOTTSBLUFF NE FAIR      35  32  88 NE5       29.92F
OMAHA NE       CLOUDY    44  39  82 N13       29.72F
DES MOINES IA  CLOUDY    44  40  85 E15G22    29.78F
DAVENPORT IA   LGT RAIN  42  40  92 E15       29.86F
CHICAGO IL     LGT RAIN  43  38  82 E18G25    29.94F
EAU CLAIRE WI  CLOUDY    38  35  89 E10       30.06F
LA CROSSE WI   CLOUDY    39  35  86 NE5G16    30.02F
$$

  *****  SOME NATIONAL WEATHER *****

CITY           SKY/WX    TMP DP  RH WIND       PRES   REMARKS
LA GUARDIA NY  FAIR      42  23  46 N8        30.21F
RALEIGH NC     MOCLDY    57  52  83 SE9       30.14R
ATLANTA GA     FAIR      68  60  75 SE5       29.97F
NEW ORLEANS LA CLOUDY    74  70  87 SE14      29.88S
OKLAHOMA CITY  MOCLDY    45  38  76 W13       29.75F
ALBUQUERQUE NM FAIR      46  37  71 SE6       30.07R
SALT LAKE CITY FAIR      50  35  56 SE7       29.99F
LOS ANGELES CA FAIR      62  54  74 SE3       30.01R
BOISE ID       FAIR      48  46  93 S3        29.91F
SEATTLE WA     CLOUDY    45  41  86 SW10      30.01R
$$

*** WEATHER ACROSS MANITOBA...SASKATCHEWAN AND ONTARIO ***
                ***ONTARIO***

CITY           SKY/WX    TMP DP  RH WIND       PRES   REMARKS
GERALDTON      CLEAR     23  19  86 E5        30.21F WCI  17
THUNDER BAY    PTCLDY    27  27 100 NE3       30.21F
SIOUX LOOKOUT  MOCLDY    36  25  64 S7        30.06F
TORONTO        MOCLDY    37  23  56 E10       30.29R
BIG TROUT LK   CLOUDY    34  23  64 SE8       30.06F
PICKLE LAKE    NOT AVBL
DRYDEN         CLOUDY    37  27  65 S13       30.04F
KENORA         MOCLDY    39  30  70 S10G18    29.99S
$$
                *** MANITOBA***

CITY           SKY/WX    TMP DP  RH WIND       PRES   REMARKS
BRANDON        MOCLDY    37  34  87 W3        29.81S
DAUPHIN        CLEAR     32  32 100 W3        29.79R FOG
ISLAND LAKE    LGT RAIN  34  32  93 SE6       29.87F
PILOT MOUND      N/A     41  36  81 S18         N/A
THE PAS        CLOUDY    32  30  93 CALM      29.82R FOG
THOMPSON       LGT RAIN  34  30  86 VRB2      29.90S FOG
WINNIPEG       MOCLDY    45  39  81 S17       29.88F
LYNN LAKE      CLOUDY    32  25  74 E3        29.89S
CHURCHILL      PTCLDY     9   7  92 E8        30.08F WCI  -4
GILLAM         CLOUDY    30  21  69 E5        29.96F
$$
                ***SASKATCHEWAN***

CITY           SKY/WX    TMP DP  RH WIND       PRES   REMARKS
ESTEVAN        CLOUDY    41  34  75 SW7       29.78F
KINDERSLEY     CLOUDY    41  36  81 E15       29.69F
LLOYDMINSTER   FOG       32  32 100 E8        29.73S VSB 1/4 WCI  25
PRINCE ALBERT  CLOUDY    34  32  93 NE2       29.81S
REGINA         CLOUDY    43  32  65 E5        29.75S
YORKTON        FOG       32  32 100 NE2       29.76F VS



USA.gov is the U.S. government's official web portal to all federal, state and local government web resources and services.